IGO7556 OERK-OEDF

Flight info

Callsign IGO7556
Flight time 0h 34m
Altitude 19000
Route ORNIP1D/33R ORNIP H976 MUSRI L604 UMENA
Aircraft A20N/M-SDE2E3FGHIRWXY/LB1

Departure

Time 2026-05-08 17:43
Airport King Khalid International Airport (OERK)

Arrival

Time 2026-05-08 18:17
Airport King Fahd International Airport (OEDF)
Time Latitude Longitude Altitude Speed Heading
2026-05-08 17:13 24.96201 46.70284 2041 ft 0 kts 197°
2026-05-08 17:22 24.96202 46.70285 2041 ft 1 kts 197°
2026-05-08 17:22 24.96207 46.70287 2068 ft 1 kts 197°
2026-05-08 17:22 24.96212 46.70288 2068 ft 1 kts 197°
2026-05-08 17:23 24.96220 46.70291 2064 ft 2 kts 197°
2026-05-08 17:23 24.96235 46.70296 2067 ft 0 kts 197°
2026-05-08 17:23 24.96243 46.70298 2064 ft 3 kts 197°
2026-05-08 17:23 24.96260 46.70304 2064 ft 3 kts 185°
2026-05-08 17:24 24.96271 46.70304 2067 ft 2 kts 165°
2026-05-08 17:24 24.96282 46.70300 2065 ft 2 kts 150°
2026-05-08 17:24 24.96290 46.70294 2064 ft 2 kts 127°
2026-05-08 17:24 24.96296 46.70284 2064 ft 2 kts 108°
2026-05-08 17:25 24.96299 46.70272 2064 ft 2 kts 88°
2026-05-08 17:25 24.96296 46.70259 2063 ft 1 kts 54°
2026-05-08 17:28 24.96311 46.70282 2063 ft 5 kts 60°
2026-05-08 17:29 24.96328 46.70318 2062 ft 5 kts 61°
2026-05-08 17:29 24.96344 46.70350 2065 ft 4 kts 61°
2026-05-08 17:29 24.96369 46.70397 2063 ft 9 kts 60°
2026-05-08 17:29 24.96397 46.70452 2063 ft 8 kts 60°
2026-05-08 17:30 24.96421 46.70497 2061 ft 6 kts 60°
2026-05-08 17:30 24.96440 46.70534 2066 ft 5 kts 60°
2026-05-08 17:30 24.96454 46.70562 2060 ft 4 kts 62°
2026-05-08 17:30 24.96460 46.70611 2060 ft 12 kts 103°
2026-05-08 17:31 24.96409 46.70670 2058 ft 10 kts 149°
2026-05-08 17:31 24.96397 46.70677 2058 ft 10 kts 149°
2026-05-08 17:31 24.96344 46.70712 2058 ft 9 kts 149°
2026-05-08 17:31 24.96295 46.70741 2058 ft 7 kts 153°
2026-05-08 17:32 24.96239 46.70775 2058 ft 16 kts 150°
2026-05-08 17:32 24.96140 46.70834 2058 ft 16 kts 152°
2026-05-08 17:32 24.96048 46.70891 2058 ft 15 kts 149°
2026-05-08 17:32 24.95957 46.70952 2062 ft 15 kts 148°
2026-05-08 17:33 24.95866 46.71012 2058 ft 15 kts 149°
2026-05-08 17:33 24.95771 46.71070 2058 ft 17 kts 153°
2026-05-08 17:33 24.95662 46.71131 2058 ft 18 kts 153°
2026-05-08 17:33 24.95546 46.71206 2061 ft 20 kts 149°
2026-05-08 17:34 24.95452 46.71249 2060 ft 0 kts 132°
2026-05-08 17:34 24.95442 46.71261 2060 ft 4 kts 133°
2026-05-08 17:34 24.95391 46.71307 2060 ft 13 kts 148°
2026-05-08 17:34 24.95296 46.71366 2060 ft 18 kts 150°
2026-05-08 17:35 24.95176 46.71442 2064 ft 21 kts 150°
2026-05-08 17:35 24.95043 46.71527 2062 ft 23 kts 150°
2026-05-08 17:35 24.94896 46.71622 2063 ft 35 kts 149°
2026-05-08 17:35 24.94665 46.71769 2060 ft 31 kts 151°
2026-05-08 17:36 24.94501 46.71872 2065 ft 27 kts 150°
2026-05-08 17:36 24.94374 46.71949 2060 ft 15 kts 149°
2026-05-08 17:36 24.94301 46.72033 2060 ft 16 kts 99°
2026-05-08 17:36 24.94318 46.72085 2063 ft 0 kts 60°
2026-05-08 17:41 24.94324 46.72097 2061 ft 6 kts 61°
2026-05-08 17:41 24.94378 46.72187 2054 ft 23 kts 43°
2026-05-08 17:41 24.94542 46.72190 2049 ft 26 kts 329°
2026-05-08 17:42 24.94724 46.72073 2051 ft 52 kts 329°
2026-05-08 17:42 24.95259 46.71746 2054 ft 121 kts 329°
2026-05-08 17:42 24.96156 46.71176 2054 ft 175 kts 331°
2026-05-08 17:42 24.97260 46.70423 2543 ft 188 kts 331°
2026-05-08 17:43 24.98332 46.69741 3455 ft 168 kts 339°
2026-05-08 17:43 24.99412 46.69294 4130 ft 172 kts 345°
2026-05-08 17:43 25.00227 46.69024 4324 ft 191 kts 346°
2026-05-08 17:43 25.01596 46.68650 4754 ft 227 kts 350°
2026-05-08 17:44 25.03845 46.68049 5294 ft 264 kts 342°
2026-05-08 17:44 25.04996 46.67557 5709 ft 273 kts 340°
2026-05-08 17:44 25.07414 46.66451 6634 ft 288 kts 339°
2026-05-08 17:44 25.08681 46.66003 7125 ft 291 kts 351°
2026-05-08 17:45 25.10715 46.65982 7707 ft 297 kts 13°
2026-05-08 17:45 25.12698 46.66654 7940 ft 301 kts 21°
2026-05-08 17:45 25.14662 46.67414 8021 ft 297 kts 21°
2026-05-08 17:45 25.16618 46.68175 8030 ft 299 kts 20°
2026-05-08 17:46 25.18625 46.68754 8028 ft 299 kts
2026-05-08 17:46 25.20694 46.68631 8022 ft 299 kts 346°
2026-05-08 17:46 25.22733 46.68148 8014 ft 300 kts 358°
2026-05-08 17:46 25.24766 46.68519 8023 ft 299 kts 24°
2026-05-08 17:47 25.26479 46.69808 8057 ft 300 kts 47°
2026-05-08 17:47 25.27865 46.71542 8629 ft 302 kts 52°
2026-05-08 17:47 25.29206 46.73318 9545 ft 304 kts 51°
2026-05-08 17:47 25.30579 46.75064 10207 ft 312 kts 50°
2026-05-08 17:48 25.32124 46.76935 10561 ft 334 kts 48°
2026-05-08 17:48 25.33752 46.78843 10810 ft 356 kts 47°
2026-05-08 17:48 25.35510 46.80872 11389 ft 364 kts 47°
2026-05-08 17:48 25.37251 46.82873 12143 ft 367 kts 46°
2026-05-08 17:49 25.39033 46.84923 12897 ft 372 kts 46°
2026-05-08 17:49 25.40830 46.86994 13629 ft 376 kts 46°
2026-05-08 17:49 25.42656 46.89099 14304 ft 381 kts 46°
2026-05-08 17:49 25.44501 46.91229 14954 ft 385 kts 46°
2026-05-08 17:50 25.46360 46.93378 15602 ft 389 kts 46°
2026-05-08 17:50 25.48215 46.95577 16241 ft 394 kts 51°
2026-05-08 17:50 25.49631 46.98187 16862 ft 397 kts 69°
2026-05-08 17:50 25.50280 47.01158 17446 ft 399 kts 87°
2026-05-08 17:51 25.50149 47.04228 18035 ft 401 kts 100°
2026-05-08 17:51 25.49720 47.07240 18582 ft 405 kts 102°
2026-05-08 17:51 25.49220 47.10372 18874 ft 408 kts 102°
2026-05-08 17:51 25.48736 47.13472 18979 ft 409 kts 102°
2026-05-08 17:52 25.48272 47.16588 18994 ft 410 kts 101°
2026-05-08 17:52 25.47827 47.19702 18997 ft 410 kts 101°
2026-05-08 17:52 25.46972 47.25941 18990 ft 411 kts 97°
2026-05-08 17:53 25.47085 47.29110 18993 ft 414 kts 81°
2026-05-08 17:53 25.47686 47.32229 18988 ft 415 kts 77°
2026-05-08 17:53 25.48390 47.35320 18987 ft 415 kts 76°
2026-05-08 17:53 25.49086 47.38421 18986 ft 415 kts 77°
2026-05-08 17:54 25.49748 47.41529 18983 ft 414 kts 78°
2026-05-08 17:54 25.50383 47.44640 18983 ft 415 kts 78°
2026-05-08 17:54 25.51002 47.47755 18981 ft 414 kts 78°
2026-05-08 17:54 25.51615 47.50877 18980 ft 414 kts 78°
2026-05-08 17:55 25.52224 47.53990 18978 ft 415 kts 78°
2026-05-08 17:55 25.52814 47.57009 18973 ft 414 kts 78°
2026-05-08 17:55 25.53443 47.60233 18972 ft 415 kts 79°
2026-05-08 17:55 25.54046 47.63325 18972 ft 414 kts 79°
2026-05-08 17:56 25.54654 47.66440 18968 ft 415 kts 79°
2026-05-08 17:56 25.55262 47.69562 18970 ft 415 kts 79°
2026-05-08 17:56 25.55870 47.72688 18965 ft 414 kts 79°
2026-05-08 17:56 25.56477 47.75813 18964 ft 414 kts 79°
2026-05-08 17:57 25.57082 47.78928 18960 ft 415 kts 79°
2026-05-08 17:57 25.57686 47.82048 18959 ft 414 kts 79°
2026-05-08 17:57 25.58290 47.85167 18958 ft 414 kts 79°
2026-05-08 17:57 25.58895 47.88295 18956 ft 414 kts 79°
2026-05-08 17:58 25.59498 47.91417 18958 ft 414 kts 79°
2026-05-08 17:58 25.60100 47.94538 18953 ft 413 kts 79°
2026-05-08 17:58 25.60701 47.97653 18953 ft 413 kts 79°
2026-05-08 17:58 25.61442 48.00714 18953 ft 414 kts 69°
2026-05-08 17:59 25.62575 48.03648 18948 ft 414 kts 66°
2026-05-08 17:59 25.63781 48.06516 18950 ft 414 kts 65°
2026-05-08 17:59 25.65604 48.10870 18946 ft 414 kts 66°
2026-05-08 17:59 25.68628 48.18363 18942 ft 413 kts 67°
2026-05-08 18:00 25.73336 48.30174 18943 ft 414 kts 69°
2026-05-08 18:00 25.80597 48.48568 18924 ft 413 kts 67°
2026-05-08 18:00 25.84522 48.58535 18917 ft 412 kts 67°
2026-05-08 18:01 25.88573 48.68868 18929 ft 412 kts 67°
2026-05-08 18:01 25.89724 48.71786 18913 ft 411 kts 68°
2026-05-08 18:01 25.90863 48.74688 18763 ft 408 kts 68°
2026-05-08 18:01 25.94104 48.82962 17429 ft 398 kts 68°
2026-05-08 18:02 25.98265 48.90527 16908 ft 399 kts 57°
2026-05-08 18:02 25.99275 48.92230 16908 ft 397 kts 57°
2026-05-08 18:02 26.01300 48.95657 16910 ft 396 kts 57°
2026-05-08 18:02 26.02809 48.98208 16908 ft 396 kts 57°
2026-05-08 18:03 26.04327 49.00767 16905 ft 396 kts 57°
2026-05-08 18:03 26.07428 49.05991 16907 ft 396 kts 57°
2026-05-08 18:03 26.08946 49.08549 16838 ft 394 kts 57°
2026-05-08 18:03 26.10453 49.11089 16523 ft 392 kts 57°
2026-05-08 18:04 26.11947 49.13611 16073 ft 389 kts 57°
2026-05-08 18:04 26.13432 49.16118 15569 ft 386 kts 57°
2026-05-08 18:04 26.14906 49.18607 15073 ft 383 kts 57°
2026-05-08 18:04 26.16365 49.21071 14583 ft 380 kts 57°
2026-05-08 18:05 26.17817 49.23526 14096 ft 377 kts 57°
2026-05-08 18:05 26.19252 49.25954 13610 ft 375 kts 57°
2026-05-08 18:05 26.20678 49.28367 13088 ft 371 kts 57°
2026-05-08 18:05 26.22091 49.30761 12606 ft 368 kts 57°
2026-05-08 18:06 26.23491 49.33133 12097 ft 365 kts 57°
2026-05-08 18:06 26.24880 49.35490 11600 ft 361 kts 57°
2026-05-08 18:06 26.26251 49.37818 11102 ft 359 kts 56°
2026-05-08 18:06 26.27616 49.40135 10641 ft 356 kts 56°
2026-05-08 18:07 26.28968 49.42431 10159 ft 353 kts 56°
2026-05-08 18:07 26.30309 49.44709 9702 ft 350 kts 56°
2026-05-08 18:07 26.31642 49.46975 9189 ft 348 kts 56°
2026-05-08 18:07 26.32945 49.49192 8740 ft 344 kts 56°
2026-05-08 18:08 26.34155 49.51517 8718 ft 342 kts 68°
2026-05-08 18:08 26.34667 49.54049 8495 ft 329 kts 86°
2026-05-08 18:08 26.34469 49.56536 8020 ft 326 kts 105°
2026-05-08 18:08 26.33578 49.58822 7422 ft 318 kts 124°
2026-05-08 18:09 26.32207 49.60630 7173 ft 294 kts 132°
2026-05-08 18:09 26.30954 49.62333 6969 ft 273 kts 127°
2026-05-08 18:09 26.29917 49.64013 6793 ft 254 kts 122°
2026-05-08 18:09 26.29062 49.65657 6642 ft 236 kts 118°
2026-05-08 18:10 26.28366 49.67247 6490 ft 221 kts 114°
2026-05-08 18:10 26.27788 49.68824 6056 ft 221 kts 110°
2026-05-08 18:10 26.27304 49.70451 5615 ft 221 kts 106°
2026-05-08 18:10 26.26919 49.72106 5211 ft 219 kts 102°
2026-05-08 18:11 26.26633 49.73769 4816 ft 218 kts 99°
2026-05-08 18:11 26.26445 49.75433 4416 ft 217 kts 95°
2026-05-08 18:11 26.26353 49.77113 3996 ft 216 kts 91°
2026-05-08 18:11 26.26360 49.78780 3616 ft 214 kts 88°
2026-05-08 18:12 26.26461 49.80427 3270 ft 211 kts 84°
2026-05-08 18:12 26.26657 49.82053 3159 ft 215 kts 80°
2026-05-08 18:12 26.26945 49.83672 3151 ft 213 kts 75°
2026-05-08 18:12 26.27612 49.85123 3099 ft 214 kts 43°
2026-05-08 18:13 26.28893 49.85879 3074 ft 208 kts 12°
2026-05-08 18:13 26.30338 49.85942 2982 ft 209 kts 353°
2026-05-08 18:13 26.31731 49.85660 2798 ft 193 kts 346°
2026-05-08 18:13 26.32952 49.85301 2569 ft 171 kts 343°
2026-05-08 18:14 26.34061 49.84957 2363 ft 165 kts 343°
2026-05-08 18:14 26.35165 49.84615 2148 ft 164 kts 343°
2026-05-08 18:14 26.36264 49.84273 1992 ft 164 kts 343°
2026-05-08 18:14 26.37363 49.83912 1836 ft 164 kts 342°
2026-05-08 18:15 26.38454 49.83533 1471 ft 163 kts 342°
2026-05-08 18:15 26.39533 49.83180 1196 ft 161 kts 343°
2026-05-08 18:15 26.40621 49.82856 1007 ft 162 kts 345°
2026-05-08 18:15 26.41711 49.82556 854 ft 162 kts 345°
2026-05-08 18:16 26.42785 49.82235 655 ft 161 kts 343°
2026-05-08 18:16 26.43863 49.81901 403 ft 160 kts 345°
2026-05-08 18:16 26.44940 49.81581 202 ft 160 kts 343°
2026-05-08 18:16 26.45989 49.81250 83 ft 147 kts 345°
2026-05-08 18:17 26.46804 49.80992 82 ft 96 kts 343°
2026-05-08 18:17 26.47307 49.80826 70 ft 57 kts 346°
2026-05-08 18:17 26.47623 49.80749 73 ft 35 kts 345°
2026-05-08 18:17 26.47830 49.80691 73 ft 26 kts 354°
2026-05-08 18:18 26.47947 49.80809 70 ft 20 kts 87°
2026-05-08 18:18 26.47852 49.80891 73 ft 19 kts 165°
2026-05-08 18:18 26.47720 49.80931 70 ft 21 kts 166°
2026-05-08 18:18 26.47574 49.80972 73 ft 23 kts 166°
2026-05-08 18:19 26.47419 49.81029 70 ft 23 kts 169°
2026-05-08 18:19 26.47381 49.81036 74 ft 0 kts 178°